map of CUF home
CUF - Airport
Location
City:  Cuneo, Piedmont, Italy
Name:Levaldigi
ICAO:LIMZ
IATA:CUF

Details
Type:Airport (Aerodrome, Airfield)
Latitude:4432'49"N (44.547019)
Longitude:737'24"E (7.623217)
Datum:WGS 1984
Elevation:1267 ft (386 m)
Variation:2.22E (WMM2015 magnetic declination)
0.11 annual change
Runways:1
Longest:6903 × 148 ft (2104 × 45 m), paved

Time
Time Zone:UTC+1 (DST+2)
Local Time:

Weather
METAR:LIMZ 151950Z 00000KT 2000 BR BKN010 11/11 Q1024
TAF:LIMZ 151700Z 1518/1618 VRB05KT 4000 BR BKN010
TEMPO 1522/1606 0600 FG
TEMPO 1612/1618 RA

Related Locations
Nearby:
Farthest:CHT: 12231 mi / 19684 km
Waitangi [Tuuta], CIT, NZ

Find:

   beyond  
but within

Other Information
Maps:
NOTAMs:
Links:
Sources:

  
  • flag of Italy
  • flag of Piedmont
  

Sectional Chart

Flight Planning
at skyvector.com

Satellite Image

Google Maps Satellite view

 

Copyright © 2004-2018 Karl L. Swartz. All rights reserved.
The Great Circle Mapper name and logo are trademarks of the Great Circle Mapper.
All other trademarks mentioned herein belong to their respective owners.
Please see credits for attibutions and further copyright information.

  Follow gcmap on Facebook Follow gcmap on Twitter Follow gcmap on Google+ GCmap on LinkedIn

hCard Microformat

Geo Microformat